Location: ??????
(56.0120°N, 39.1740°E)
Time: 22:05:12
(UTC+00:00)

SL-4 R/B - Pass Details

Date: 14 April 2026
Orbit: 380 x 506 km, 51.6° (Epoch: 12 May)

Event Time Altitude Azimuth Distance (km) Brightness Sun altitude
Exits shadow 23:44:39 40° 177° (S) 751 2.3 -18.1°
Maximum altitude 23:44:48 40° 171° (S) 748 2.3 -18.1°
Drops below altitude 10° 23:48:24 10° 101° (E) 1,688 4.8 -17.7°
Sets 23:50:38 0° 94° (E) 2,553 5.9 -17.6°
